User: anonymous   Login
Location: Unspecified
(0.0000°N, 0.0000°E)
Time: 10:37:22
(UTC+00:00)
Language:

USA 268 - Orbit

View from above orbital plane
View from above orbital plane
View from above satellite
View from above satellite

Ground track
Ground track

The orbit data is extracted from the following two-line orbital elements,

1 41584U 16036A   18117.08845626 0.00000000  00000-0  00000-0 0    08
2 41584   7.1621 351.9463 0051974  37.1908 323.1915  1.00270000    00
Epoch (UTC): 27 April 2018 02:07:22
Eccentricity: 0.0051974
inclination: 7.1621°
perigee height: 35567 km
apogee height: 36006 km
right ascension of ascending node: 351.9463°
argument of perigee: 37.1908°
revolutions per day: 1.00270000
mean anomaly at epoch: 323.1915°
orbit number at epoch: 0

The dashed part of the orbit path shows where the satellite is in the earth's shadow,  

DLR